TELLUMGE Weather Reports


time (UTC)temp
F
wind
direction
speed
knots
gust
knots
rain 1hr
in
rain 24hr
in
rain mn
in
humidity
%
barometer
mb
20260505223002 74 56 0.9 4.3 0.00 0.00 0.00 82 1015.7
20260505221505 74 46 0.0 3.5 0.00 0.00 0.00 83 1015.7
20260505220010 73 90 0.0 4.3 0.00 0.00 0.00 85 1015.5
20260505213015 72 64 0.0 3.5 0.00 0.00 0.00 87 1015.3
20260505211503 72 82 0.0 2.6 0.00 0.00 0.00 87 1015.3
20260505210008 71 79 1.7 3.5 0.00 0.00 0.00 89 1015.1
20260505204514 71 27 0.0 2.6 0.00 0.00 0.00 89 1015.0
20260505201520 70 85 0.0 1.7 0.00 0.00 0.00 90 1014.7
20260505194508 70 67 0.0 2.6 0.00 0.00 0.00 90 1014.5
20260505190021 71 76 0.9 5.2 0.00 0.00 0.00 88 1013.9
20260505184524 71 81 0.9 6.1 0.00 0.00 0.00 87 1013.9
20260505183010 71 77 0.0 6.1 0.00 0.00 0.00 87 1013.8
20260505180017 71 51 0.9 4.3 0.00 0.00 0.00 89 1013.9
20260505174525 71 56 0.9 3.5 0.00 0.00 0.00 88 1013.9
20260505173024 71 79 1.7 5.2 0.00 0.00 0.00 88 1013.8
20260505171511 72 72 1.7 5.2 0.00 0.00 0.00 88 1013.9
20260505170017 72 82 1.7 3.5 0.00 0.00 0.00 87 1014.1
20260505164517 72 76 0.9 5.2 0.00 0.00 0.00 88 1014.1
20260505163020 71 78 0.9 2.6 0.00 0.00 0.00 89 1014.1
20260505161538 71 78 0.9 4.3 0.00 0.00 0.00 89 1014.3
20260505153020 71 72 1.7 5.2 0.00 0.00 0.00 88 1014.9
20260505151522 71 74 1.7 2.6 0.00 0.00 0.00 88 1015.0
20260505124510 70 63 0.9 3.5 0.00 0.00 0.00 88 1016.2
20260505123012 70 75 1.7 3.5 0.00 0.00 0.00 89 1016.4
20260505121529 70 80 1.7 2.6 0.00 0.00 0.00 89 1016.5
20260505120019 71 355 0.9 4.3 0.00 0.00 0.00 88 1016.5
20260505114504 71 70 0.0 2.6 0.00 0.00 0.00 88 1016.8
20260505113007 72 77 0.9 2.6 0.00 0.00 0.00 87 1016.8
20260505111512 72 52 0.0 4.3 0.00 0.00 0.00 86 1016.8
20260505101510 69 116 0.0 0.0 0.00 0.00 0.00 92 1016.5
20260505100017 70 116 0.0 0.0 0.00 0.00 0.00 91 1016.4
20260505094520 70 116 0.0 0.0 0.00 0.00 0.00 91 1016.4
20260505093024 71 116 0.0 0.0 0.00 0.00 0.00 90 1016.2
20260505091521 72 117 0.0 0.0 0.00 0.00 0.00 89 1015.9
20260505083021 73 116 0.0 0.0 0.00 0.00 0.00 88 1015.1
20260505081523 73 116 0.0 0.0 0.00 0.00 0.00 87 1015.0
20260505080038 74 116 0.0 0.0 0.00 0.00 0.00 86 1015.0
20260505073027 75 129 0.0 0.9 0.00 0.00 0.00 85 1014.8
20260505071519 76 98 0.0 0.9 0.00 0.00 0.00 83 1014.6
20260505070021 76 184 0.0 1.7 0.00 0.00 0.00 83 1014.5
20260505064523 76 137 0.0 0.9 0.00 0.00 0.00 82 1014.2
20260505060015 78 90 0.0 0.9 0.00 0.00 0.00 80 1014.0
20260505054524 78 11 0.0 2.6 0.00 0.00 0.00 78 1013.9
20260505053009 78 204 0.0 1.7 0.00 0.00 0.00 77 1013.9
20260505051511 78 88 0.0 1.7 0.00 0.00 0.00 80 1013.8
20260505041506 82 183 0.0 1.7 0.00 0.00 0.00 68 1013.8
20260505040015 82 276 0.0 0.9 0.00 0.00 0.00 69 1013.8
20260505034518 82 190 0.0 1.7 0.00 0.00 0.00 67 1014.0
20260505033005 82 166 0.0 0.0 0.00 0.00 0.00 68 1014.2
20260505031506 82 54 0.0 2.6 0.00 0.00 0.00 72 1014.4
20260505030010 81 101 0.0 4.3 0.00 0.00 0.00 69 1014.5
20260505024513 81 222 0.0 0.9 0.00 0.00 0.00 72 1014.6
20260505023024 82 263 0.0 1.7 0.00 0.00 0.00 70 1014.8
20260505021503 81 82 0.0 0.9 0.00 0.00 0.00 70 1015.0
20260505020010 81 140 0.0 1.7 0.00 0.00 0.00 69 1015.4
20260505014508 80 85 0.0 3.5 0.00 0.00 0.00 69 1015.7
20260505013016 81 108 0.0 4.3 0.00 0.00 0.00 72 1015.9
20260505011520 80 77 0.0 3.5 0.00 0.00 0.00 72 1016.0
20260505010005 80 250 0.0 2.6 0.00 0.00 0.00 75 1016.2
20260505004513 80 226 0.9 3.5 0.00 0.00 0.00 73 1016.1
20260505003010 79 240 0.0 3.5 0.00 0.00 0.00 74 1016.0
20260505001514 78 110 0.0 5.2 0.00 0.00 0.00 77 1016.7
20260505000022 78 204 0.0 4.3 0.00 0.00 0.00 75 1016.8
20260504234521 78 255 0.0 2.6 0.00 0.00 0.00 77 1016.8
20260504233008 77 337 0.0 1.7 0.00 0.00 0.00 78 1017.0
20260504231512 75 86 0.0 3.5 0.00 0.00 0.00 83 1016.8
20260504230017 74 87 1.7 4.3 0.00 0.00 0.00 82 1016.8
20260504224530 73 69 1.7 5.2 0.00 0.00 0.00 84 1016.8